Location: Widewater Village at Stafford
(38.4893°N, 77.3783°W)
Time: 15:29:29
(UTC+00:00)

BlueWalker 3 - Pass Details

Date: 13 December 2022
Orbit: 499 x 517 km, 53.2° (Epoch: 04 February)

Event Time Altitude Azimuth Distance (km) Brightness Sun altitude
Rises 00:16:19 0° 291° (WNW) 2,613 6.5 -28.0°
Reaches altitude 10° 00:19:34 10° 263° (W) 1,717 5.6 -28.6°
Maximum altitude 00:21:19 13° 236° (SW) 1,546 5.1 -29.0°
Drops below altitude 10° 00:23:04 10° 209° (SSW) 1,706 5.0 -29.3°
Enters shadow 00:24:06 - 196° (SSW) 1,929 5.2 -29.5°
